This is the latest recevied weather packets stored in our database for station/object KK6LVQ-13. If no packets are shown the sender has not sent any weather packets the latest 10 day(s).
| Time | Temp. | Humidity | Pressure | Rain* | Wind** | Luminosity | Snow |
|---|---|---|---|---|---|---|---|
| 1778201720 | 18.89° C | 72% | 1021 hPa | 0 mm | - | 233 W/m² | - |
| 1778201417 | 18.89° C | 71% | 1020.7 hPa | 0 mm | - | 250 W/m² | - |
| 1778201113 | 18.89° C | 71% | 1021 hPa | 0 mm | - | 266 W/m² | - |
| 1778200810 | 19.44° C | 70% | 1021.1 hPa | 0 mm | - | 282 W/m² | - |
| 1778200506 | 19.44° C | 70% | 1020.9 hPa | 0 mm | - | 298 W/m² | - |
| 1778200204 | 19.44° C | 69% | 1021.1 hPa | 0 mm | - | 312 W/m² | - |
| 1778199900 | 19.44° C | 68% | 1021.1 hPa | 0 mm | - | 330 W/m² | - |
| 1778199597 | 20° C | 67% | 1020.9 hPa | 0 mm | - | 346 W/m² | - |
| 1778199293 | 20° C | 67% | 1021 hPa | 0 mm | - | 361 W/m² | - |
| 1778198990 | 20° C | 66% | 1020.8 hPa | 0 mm | - | 377 W/m² | - |
| 1778198685 | 20.56° C | 67% | 1020.9 hPa | 0 mm | - | 391 W/m² | - |
| 1778198382 | 20.56° C | 66% | 1020.8 hPa | 0 mm | - | 409 W/m² | - |
| 1778198079 | 21.67° C | 64% | 1021 hPa | 0 mm | - | 423 W/m² | - |
| 1778197777 | 21.67° C | 61% | 1020.8 hPa | 0 mm | - | 439 W/m² | - |
| 1778197473 | 22.22° C | 62% | 1020.6 hPa | 0 mm | - | 454 W/m² | - |
| 1778197170 | 22.78° C | 61% | 1020.5 hPa | 0 mm | - | 469 W/m² | - |
| 1778196867 | 23.89° C | 58% | 1020.6 hPa | 0 mm | - | 483 W/m² | - |
| 1778196565 | 24.44° C | 54% | 1020.7 hPa | 0 mm | - | 503 W/m² | - |
| 1778196261 | 24.44° C | 53% | 1020.6 hPa | 0 mm | - | 518 W/m² | - |
| 1778195959 | 24.44° C | 52% | 1020.4 hPa | 0 mm | - | 529 W/m² | - |
| 1778195655 | 25° C | 50% | 1020.7 hPa | 0 mm | - | 542 W/m² | - |
| 1778195352 | 25.56° C | 48% | 1020.7 hPa | 0 mm | - | 555 W/m² | - |
| 1778195049 | 25° C | 49% | 1020.5 hPa | 0 mm | - | 568 W/m² | - |
| 1778194749 | 25.56° C | 48% | 1020.7 hPa | 0 mm | - | 580 W/m² | - |
| 1778194446 | 25° C | 47% | 1020.8 hPa | 0 mm | - | 592 W/m² | - |
* Rain latest hour (hover to see other rain measurements)
** Current wind speed in m/s (hover to see current wind gust speed)